Simultaneous Nadir Overpasses (SNOs) Predictions

Prediction of SNOs between TERRA and METOP-C Satellite Orbit:

Table of predicted SNOs for the next 14.0 days since TLE Epoch: 7/21/2023
Index Date (TERRA) Time (TERRA) Lat,Lon (TERRA) SZA (TERRA ) Date (METOP-C) Time (METOP-C) Lat,Lon (METOP-C) SZA (METOP-C ) Distance(km) Time Diff (sec)
1 07/23/2023 22:02:50 -80.68, 59.81 118.11 07/23/2023 22:01:43 -80.68, 59.79 118.13 0.60 67
2 07/23/2023 22:52:09 80.75,-131.76 62.02 07/23/2023 22:52:20 80.74,-131.94 62.01 3.22 11
3 07/26/2023 14:13:31 -80.71, 177.49 117.48 07/26/2023 14:13:18 -80.71, 177.33 117.50 2.83 13
4 07/26/2023 15:02:49 80.81, -13.75 62.71 07/26/2023 15:03:53 80.81, -13.67 62.74 1.43 64
5 07/29/2023 05:34:49 80.71, 127.04 63.11 07/29/2023 05:34:12 80.70, 126.92 63.08 2.31 37
6 07/29/2023 06:24:10 -80.76, -64.69 116.79 07/29/2023 06:24:51 -80.76, -64.84 116.79 2.73 41
7 07/31/2023 20:56:09 -80.70, 76.59 116.27 07/31/2023 20:55:08 -80.70, 76.72 116.28 2.26 61
8 07/31/2023 21:45:28 80.77,-114.98 63.86 07/31/2023 21:45:45 80.76,-114.94 63.87 0.74 17
9 08/03/2023 13:06:48 -80.74,-165.62 115.52 08/03/2023 13:06:42 -80.74,-165.58 115.52 0.72 6



Historial Predications of SNOs between TERRA and METOP-C
